When you browse on this site, cookies collect data to enhance your experience and personalize the content and advertising you see.
Visit our Privacy Policy to learn more. By continuing to use the site, you agree to this use of cookies and data.
  • en France
  • Liste des pays
  • À 7 jours
  • Température de l'eau
  • Carte satellitaire
  • Carte météo
  • Widgets météo
  • user-avatar
    Se connecter

    Météo par heure à Sumqayit

    Ce jour, 19 Juin, Mercredi

    Heure Température Précipitation Vent Pression Humidité
    00:00 +29°C° 0 mm 7 m/s 735 mmHg 31%
    01:00 +28°C° 0 mm 7 m/s 735 mmHg 32%
    02:00 +28°C° 0 mm 7 m/s 735 mmHg 33%
    03:00 +27°C° 0 mm 7 m/s 735 mmHg 35%
    04:00 +28°C° 0 mm 7 m/s 735 mmHg 34%
    05:00 +28°C° 0 mm 7 m/s 735 mmHg 33%
    06:00 +29°C° 0 mm 7 m/s 735 mmHg 32%
    07:00 +31°C° 0.1 mm 8 m/s 735 mmHg 29%
    08:00 +33°C° 0.1 mm 8 m/s 735 mmHg 25%
    09:00 +34°C° 0.1 mm 8 m/s 736 mmHg 22%
    10:00 +34°C° 0 mm 9 m/s 736 mmHg 22%
    11:00 +35°C° 0 mm 9 m/s 736 mmHg 22%
    12:00 +35°C° 0 mm 9 m/s 735 mmHg 22%
    13:00 +35°C° 0 mm 8 m/s 735 mmHg 22%
    14:00 +35°C° 0 mm 8 m/s 735 mmHg 22%
    15:00 +35°C° 0 mm 8 m/s 735 mmHg 23%
    16:00 +34°C° 0 mm 8 m/s 735 mmHg 23%
    17:00 +33°C° 0 mm 8 m/s 735 mmHg 23%
    18:00 +33°C° 0 mm 8 m/s 735 mmHg 24%
    19:00 +32°C° 0 mm 8 m/s 735 mmHg 25%
    20:00 +30°C° 0 mm 7 m/s 735 mmHg 27%
    21:00 +29°C° 0 mm 7 m/s 735 mmHg 28%
    22:00 +29°C° 0 mm 7 m/s 735 mmHg 29%
    23:00 +28°C° 0 mm 6 m/s 735 mmHg 29%

    Demain, 20 Juin, Jeudi

    Heure Température Précipitation Vent Pression Humidité
    00:00 +28°C° 0 mm 6 m/s 735 mmHg 30%
    01:00 +28°C° 0 mm 5 m/s 735 mmHg 30%
    02:00 +27°C° 0 mm 4 m/s 735 mmHg 31%
    03:00 +27°C° 0 mm 4 m/s 735 mmHg 31%
    04:00 +27°C° 0 mm 4 m/s 735 mmHg 29%
    05:00 +28°C° 0 mm 4 m/s 735 mmHg 28%
    06:00 +29°C° 0 mm 4 m/s 735 mmHg 26%
    07:00 +30°C° 0 mm 4 m/s 735 mmHg 23%
    08:00 +33°C° 0 mm 4 m/s 735 mmHg 21%
    09:00 +34°C° 0 mm 5 m/s 735 mmHg 18%
    10:00 +35°C° 0 mm 5 m/s 735 mmHg 19%
    11:00 +36°C° 0 mm 6 m/s 735 mmHg 19%
    12:00 +36°C° 0 mm 6 m/s 735 mmHg 19%
    13:00 +36°C° 0 mm 7 m/s 735 mmHg 20%
    14:00 +35°C° 0 mm 8 m/s 734 mmHg 20%
    15:00 +35°C° 0 mm 8 m/s 734 mmHg 21%
    16:00 +34°C° 0 mm 8 m/s 734 mmHg 21%
    17:00 +34°C° 0 mm 9 m/s 734 mmHg 21%
    18:00 +33°C° 0 mm 9 m/s 734 mmHg 22%
    19:00 +32°C° 0 mm 9 m/s 734 mmHg 24%
    20:00 +31°C° 0 mm 9 m/s 735 mmHg 26%
    21:00 +29°C° 0 mm 9 m/s 735 mmHg 27%
    22:00 +29°C° 0 mm 9 m/s 735 mmHg 27%
    23:00 +29°C° 0 mm 8 m/s 735 mmHg 27%

    Après-demain, 21 Juin, Vendredi

    Heure Température Précipitation Vent Pression Humidité
    00:00 +28°C° 0 mm 8 m/s 735 mmHg 27%
    01:00 +28°C° 0 mm 8 m/s 735 mmHg 26%
    02:00 +28°C° 0 mm 7 m/s 734 mmHg 26%
    03:00 +28°C° 0 mm 7 m/s 734 mmHg 25%
    04:00 +29°C° 0 mm 6 m/s 735 mmHg 25%
    05:00 +29°C° 0 mm 6 m/s 735 mmHg 25%
    06:00 +29°C° 0 mm 6 m/s 735 mmHg 25%
    07:00 +32°C° 0 mm 7 m/s 735 mmHg 25%
    08:00 +33°C° 0 mm 8 m/s 735 mmHg 24%
    09:00 +34°C° 0 mm 8 m/s 736 mmHg 24%
    10:00 +34°C° 0 mm 8 m/s 736 mmHg 25%
    11:00 +34°C° 0 mm 8 m/s 736 mmHg 26%
    12:00 +35°C° 0 mm 8 m/s 736 mmHg 27%
    13:00 +35°C° 0.2 mm 9 m/s 736 mmHg 26%
    14:00 +35°C° 0.2 mm 9 m/s 735 mmHg 26%
    15:00 +34°C° 0.2 mm 10 m/s 735 mmHg 26%
    16:00 +34°C° 0.2 mm 11 m/s 735 mmHg 27%
    17:00 +34°C° 0.2 mm 11 m/s 735 mmHg 27%
    18:00 +33°C° 0.2 mm 12 m/s 735 mmHg 28%
    19:00 +32°C° 0 mm 11 m/s 735 mmHg 29%
    20:00 +32°C° 0 mm 11 m/s 736 mmHg 31%
    21:00 +31°C° 0 mm 11 m/s 736 mmHg 33%
    22:00 +31°C° 0 mm 10 m/s 736 mmHg 32%
    23:00 +31°C° 0 mm 9 m/s 736 mmHg 32%

    22 Juin, Samedi

    Heure Température Précipitation Vent Pression Humidité
    00:00 +31°C° 0 mm 8 m/s 736 mmHg 31%
    01:00 +29°C° 0 mm 8 m/s 736 mmHg 32%
    02:00 +29°C° 0 mm 7 m/s 735 mmHg 33%
    03:00 +29°C° 0 mm 6 m/s 735 mmHg 33%
    04:00 +29°C° 0 mm 6 m/s 736 mmHg 34%
    05:00 +29°C° 0 mm 6 m/s 736 mmHg 34%
    06:00 +29°C° 0 mm 6 m/s 736 mmHg 34%
    07:00 +30°C° 0.2 mm 6 m/s 736 mmHg 32%
    08:00 +32°C° 0.2 mm 6 m/s 737 mmHg 30%
    09:00 +33°C° 0.2 mm 7 m/s 737 mmHg 28%
    10:00 +33°C° 0.1 mm 7 m/s 737 mmHg 29%
    11:00 +34°C° 0.1 mm 8 m/s 737 mmHg 29%
    12:00 +34°C° 0.1 mm 9 m/s 737 mmHg 30%
    13:00 +34°C° 0 mm 9 m/s 737 mmHg 29%
    14:00 +35°C° 0 mm 9 m/s 736 mmHg 28%
    15:00 +35°C° 0 mm 9 m/s 736 mmHg 28%
    16:00 +34°C° 0 mm 8 m/s 736 mmHg 29%
    17:00 +34°C° 0 mm 8 m/s 736 mmHg 31%
    18:00 +33°C° 0 mm 8 m/s 736 mmHg 33%
    19:00 +32°C° 0 mm 7 m/s 736 mmHg 35%
    20:00 +32°C° 0 mm 7 m/s 737 mmHg 37%
    21:00 +30°C° 0 mm 6 m/s 737 mmHg 39%
    22:00 +30°C° 0 mm 5 m/s 737 mmHg 39%
    23:00 +29°C° 0 mm 4 m/s 737 mmHg 39%

    23 Juin, Dimanche

    Heure Température Précipitation Vent Pression Humidité
    00:00 +29°C° 0 mm 3 m/s 736 mmHg 40%
    01:00 +29°C° 0 mm 3 m/s 736 mmHg 42%
    02:00 +28°C° 0 mm 3 m/s 736 mmHg 44%
    03:00 +27°C° 0 mm 2 m/s 736 mmHg 45%
    04:00 +28°C° 0 mm 2 m/s 736 mmHg 43%
    05:00 +29°C° 0 mm 2 m/s 736 mmHg 41%
    06:00 +29°C° 0 mm 2 m/s 736 mmHg 39%
    07:00 +31°C° 0 mm 2 m/s 737 mmHg 35%
    08:00 +34°C° 0 mm 3 m/s 737 mmHg 30%
    09:00 +35°C° 0 mm 4 m/s 737 mmHg 26%
    10:00 +36°C° 0 mm 4 m/s 737 mmHg 26%
    11:00 +36°C° 0 mm 5 m/s 737 mmHg 26%
    12:00 +38°C° 0 mm 6 m/s 737 mmHg 26%
    13:00 +38°C° 0 mm 7 m/s 737 mmHg 26%
    14:00 +38°C° 0 mm 7 m/s 736 mmHg 26%
    15:00 +38°C° 0 mm 8 m/s 736 mmHg 26%
    16:00 +37°C° 0 mm 8 m/s 736 mmHg 28%
    17:00 +35°C° 0 mm 9 m/s 736 mmHg 30%
    18:00 +34°C° 0 mm 9 m/s 736 mmHg 33%
    19:00 +33°C° 0 mm 9 m/s 736 mmHg 34%
    20:00 +32°C° 0 mm 8 m/s 737 mmHg 36%
    21:00 +31°C° 0 mm 8 m/s 737 mmHg 37%
    22:00 +30°C° 0 mm 7 m/s 737 mmHg 36%
    23:00 +30°C° 0 mm 7 m/s 736 mmHg 35%

    24 Juin, Lundi

    Heure Température Précipitation Vent Pression Humidité
    00:00 +30°C° 0 mm 6 m/s 736 mmHg 34%
    01:00 +30°C° 0 mm 6 m/s 736 mmHg 34%
    02:00 +30°C° 0 mm 6 m/s 736 mmHg 34%
    03:00 +29°C° 0 mm 6 m/s 736 mmHg 34%
    04:00 +30°C° 0 mm 6 m/s 736 mmHg 34%
    05:00 +30°C° 0 mm 6 m/s 736 mmHg 34%
    06:00 +30°C° 0 mm 6 m/s 736 mmHg 34%
    07:00 +33°C° 0 mm 6 m/s 736 mmHg 31%
    08:00 +34°C° 0 mm 6 m/s 736 mmHg 29%
    09:00 +35°C° 0 mm 6 m/s 737 mmHg 26%
    10:00 +36°C° 0 mm 6 m/s 736 mmHg 25%
    11:00 +38°C° 0 mm 6 m/s 736 mmHg 24%
    12:00 +39°C° 0 mm 6 m/s 736 mmHg 24%
    13:00 +38°C° 0 mm 7 m/s 736 mmHg 25%
    14:00 +38°C° 0 mm 8 m/s 736 mmHg 25%
    15:00 +38°C° 0 mm 9 m/s 736 mmHg 26%
    16:00 +37°C° 0 mm 10 m/s 736 mmHg 28%
    17:00 +36°C° 0 mm 10 m/s 736 mmHg 29%
    18:00 +36°C° 0 mm 10 m/s 735 mmHg 31%
    19:00 +33°C° 0 mm 10 m/s 736 mmHg 35%
    20:00 +32°C° 0 mm 10 m/s 736 mmHg 39%
    21:00 +31°C° 0 mm 10 m/s 736 mmHg 43%
    22:00 +31°C° 0 mm 9 m/s 736 mmHg 41%
    23:00 +31°C° 0 mm 8 m/s 736 mmHg 40%
    Voir plus